Location: Palombina Vecchia
(43.6167°N, 13.4333°E)
Time: 12:31:19
(UTC+00:00)

Daily predictions for brighter satellites

Satellite Brightness Start Highest point End
(mag) Time Altitude Azimuth Time Altitude Azimuth Time Altitude Azimuth
ATLAS 3B R/B 3.3 18:54:47 10° NNW 19:01:40 51° NE 19:08:49 10° ESE
Cosmos 2279 Rocket 4.0 18:56:22 10° N 19:02:35 77° E 19:08:46 10° SSE
BREEZE M DEB (TANK) 4.2 19:02:04 10° SSE 19:04:22 17° ESE 19:09:16 10° ENE
Cosmos 773 Rocket 4.0 18:59:53 10° S 19:05:03 71° ESE 19:10:13 10° NNE
Cosmos 1833 Rocket 3.3 18:59:43 10° SW 19:05:19 65° WNW 19:10:56 10° NNE
SAR-Lupe-1 4.0 19:02:50 10° NNE 19:06:25 80° ESE 19:09:59 10° S
OBJECT-B 1.7 19:04:25 10° S 19:07:32 49° W 19:10:40 10° NNW
SAR-Lupe-4 3.5 19:04:00 10° NNE 19:07:36 72° ESE 19:11:09 10° S
Cosmos 2082 Rocket 2.2 19:06:16 10° SSW 19:11:52 73° ESE 19:17:30 10° NNE
SJ-6B 3.3 19:08:30 10° S 19:12:09 58° W 19:15:51 10° NNW
Cosmos 1842 Rocket 3.6 19:11:46 10° N 19:16:16 74° E 19:20:44 10° SSE
Cosmos 2278 4.0 19:11:28 10° NNW 19:17:03 56° ENE 19:22:37 10° SE
Resurs 1-3 3.6 19:13:09 10° SSE 19:17:32 84° ENE 19:21:57 10° NNW
Cosmos 1633 2.6 19:18:52 10° S 19:22:23 55° E 19:25:57 10° NNE
Cosmos 2360 Rocket 4.3 19:20:38 10° NNE 19:23:22 14° NE 19:26:06 10° ENE
Cosmos 158 Rocket 4.5 19:21:12 10° S 19:25:54 38° ESE 19:30:46 10° NE
Nadezhda 4 Rocket 4.0 19:24:49 10° S 19:30:53 64° E 19:37:02 10° NNE
Cosmos 1606 2.6 19:27:54 10° N 19:31:41 86° E 19:35:29 10° S
GP-B 4.4 19:32:42 10° NNE 19:36:18 24° E 19:38:47 15° SE
Landsat 7 3.8 19:32:09 10° SSE 19:36:52 68° ENE 19:41:37 10° N
Spot 2 Rocket 4.5 19:34:37 13° ESE 19:38:24 32° ENE 19:42:54 10° N
SPOT 3 Rocket 3.7 19:33:28 10° SSE 19:38:34 64° ENE 19:43:44 10° N
IGS 5A 3.4 19:35:59 10° SSE 19:40:07 84° ENE 19:44:17 10° N
ISS -3.3 19:37:09 10° NW 19:40:28 55° NNE 19:42:58 16° ESE
BREEZE-M DEB (TANK) 4.3 19:32:27 10° W 19:43:50 50° NNW 19:47:20 10° ENE
MetOp-B 4.2 19:40:08 12° SSE 19:44:59 63° ENE 19:50:18 10° N
Cosmos 1980 Rocket 2.4 19:40:05 10° NNW 19:45:41 72° WSW 19:51:04 11° SSE
Cosmos 2369 4.4 19:40:29 10° NW 19:45:58 52° WSW 19:51:24 10° S
CZ-2C R/B 4.0 19:43:42 10° NNE 19:48:03 45° E 19:52:04 11° S
RESURS DK-1 3.7 19:46:24 10° SW 19:50:23 43° WNW 19:54:23 10° NNE
Cosmos 2221 3.7 19:46:29 10° NNW 19:50:34 43° W 19:54:39 10° SSW
USA 245 4.1 19:47:53 16° SE 19:51:48 50° ENE 19:55:57 10° N
ERBS 4.3 19:49:27 10° WNW 19:51:51 19° SW 19:54:07 10° S
BREEZE-M DEB (TANK) 3.2 19:51:04 10° WSW 19:54:28 84° SSE 20:06:12 10° ENE
Meteor 2-15 4.4 19:49:26 10° N 19:55:31 75° E 20:00:51 14° SSE
Cosmos 2322 Rocket 3.2 19:51:19 10° N 19:56:23 33° NE 19:59:58 17° ESE
Cosmos 1538 Rocket 4.2 19:55:44 10° SSW 20:00:56 76° WNW 20:06:09 10° NNE
Cosmos 304 Rocket 3.9 19:56:12 10° NNW 20:00:57 62° ENE 20:03:54 22° SE
BREEZE-M DEB (TANK) 3.7 19:57:57 10° WNW 20:01:20 86° NNE 20:09:24 16° ESE
Cosmos 1933 3.4 19:58:09 10° N 20:02:11 62° E 20:04:32 23° SSE
Resurs 01 Rocket 2.2 19:58:25 10° S 20:02:47 58° W 20:07:11 10° NNW
Cosmos 2151 2.9 20:00:54 10° S 20:05:08 88° W 20:09:26 10° N
ERS-2 3.7 20:02:46 10° N 20:06:09 36° WNW 20:09:30 10° SW
Cosmos 2098 Rocket 3.6 20:03:39 10° SSW 20:06:33 41° WNW 20:09:56 10° N
Meteor 2-3 Rocket 3.7 20:04:38 10° S 20:10:15 76° E 20:15:59 10° NNE
Gbstr 26 Del rocket 3.3 20:06:55 10° NW 20:10:35 52° NNE 20:12:56 22° E
JB-3 4.3 20:06:49 10° NNE 20:10:57 69° E 20:13:56 18° S
CARTOSAT-1 3.7 20:09:29 25° SE 20:11:48 58° ENE 20:16:03 10° N
Cosmos 2084 4.1 20:12:29 28° ESE 20:12:38 28° ESE 20:16:12 10° ENE
Meteor 2-15 Rocket 4.4 20:07:33 10° N 20:13:40 82° E 20:18:12 19° SSE
Cosmos 2219 Rocket 4.3 20:14:28 10° N 20:17:24 14° NE 20:20:20 10° ENE
Cosmos 1862 4.4 20:21:26 25° E 20:21:41 26° E 20:25:01 10° NNE
SL-16 R/B 2.3 20:19:25 10° NNW 20:25:06 69° ENE 20:28:03 29° SE
COSMOS 2455 4.4 20:26:04 16° E 20:26:04 16° E 20:29:05 10° ENE
Cosmos 1782 2.7 20:24:36 10° N 20:28:38 74° E 20:30:03 38° SSE
ARIANE 5 R/B 2.6 20:26:51 32° SSE 20:28:53 74° ENE 20:33:21 10° N
Cosmos 371 Rocket 4.4 20:25:01 10° NW 20:29:29 39° WSW 20:32:51 16° SSW
Cosmos 1809 Rocket 4.5 20:30:11 24° SSE 20:33:58 63° E 20:40:02 10° NNE
SPOT 1/Viking Rocket 4.1 20:31:19 18° S 20:35:05 53° W 20:40:12 10° NNW
Cosmos 1271 Rocket 3.0 20:31:14 10° NNW 20:35:13 66° W 20:36:55 32° S
USA 276 2.1 20:35:05 10° WNW 20:38:14 71° NNE 20:38:32 64° ENE
BREEZE-M DEB (TANK) 2.9 20:35:46 10° WNW 20:39:09 70° SSW 20:43:14 27° SE
Cosmos 1766 Rocket 3.4 20:37:42 34° S 20:39:32 76° E 20:43:55 10° NNE
Cosmos 1151 Rocket 2.9 20:37:53 10° N 20:42:16 82° E 20:43:40 43° SSE
ATLAS 5 CENTAUR R/B 4.4 20:40:18 10° N 20:43:47 17° NNE 20:47:37 10° ENE
Cosmos 1328 Rocket 3.5 20:42:04 10° N 20:46:31 69° E 20:47:39 47° SE
Cosmos 923 Rocket 4.3 20:42:01 10° SSW 20:47:19 68° WNW 20:52:41 10° NNE
Terra 1.8 20:47:56 42° SE 20:49:27 68° ENE 20:54:12 10° N
SPOT 5 2.6 20:50:48 43° S 20:52:10 79° WSW 20:56:33 10° NNW
ATLAS 3B R/B 3.7 20:45:43 10° NW 20:52:17 40° WSW 20:56:42 21° S
USA 267 3.4 20:48:11 10° ENE 20:54:25 45° SE 20:59:02 18° SSW
Meteor 2-21 Rocket 4.5 20:56:51 36° SSE 20:59:20 63° E 21:05:26 10° NNE
NOSS 2-1 (C) 3.3 21:00:50 51° NE 21:00:50 51° NE 21:03:25 10° NE
Cosmos 2056 Rocket 3.5 20:55:14 10° NNW 21:00:36 71° ENE 21:02:09 46° SE
ERS-1 Rocket 3.2 21:00:35 36° S 21:02:33 65° WSW 21:07:33 10° NNW
BREEZE-M DEB (TANK) 4.3 21:01:49 10° NW 21:03:12 20° NNW 21:03:12 20° NNW
SL-27 R/B 2.8 21:06:23 57° NE 21:06:23 57° NE 21:09:25 10° NNE
Meteor 2-21 4.4 21:02:38 29° S 21:05:59 88° W 21:12:12 10° N
NOSS 2-1 (D) 3.2 21:08:18 60° NNE 21:08:18 60° NNE 21:11:06 10° NE
Cosmos 2360 Rocket 2.2 21:02:50 10° NNW 21:08:29 69° ENE 21:10:08 45° SE
Cosmos 1833 4.1 21:14:09 43° S 21:16:02 70° ESE 21:21:49 10° NNE
ISS -1.5 21:14:23 10° W 21:15:56 18° WSW 21:15:56 18° WSW
Cosmos 2333 Rocket 2.9 21:13:39 10° NNW 21:19:00 42° ENE 21:20:38 34° E
Meteor 1-10 Rocket 4.1 21:15:53 10° N 21:21:29 86° E 21:22:51 53° SSE
Cosmos 1371 Rocket 4.1 21:16:43 10° NNW 21:22:04 69° WSW 21:23:22 50° S
Cosmos 1500 Rocket 3.7 21:22:35 57° E 21:22:35 57° E 21:26:46 10° NNE
Cosmos 1812 3.3 21:19:06 10° NNW 21:22:50 49° W 21:23:03 48° WSW
Cosmos 972 Rocket 4.4 21:23:45 44° ESE 21:23:45 44° ESE 21:28:34 10° NNE
Cosmos 220 Rocket 4.5 21:21:11 10° NNW 21:25:24 50° WSW 21:25:50 48° SW
USA 234 4.2 21:22:43 14° E 21:27:58 44° NNE 21:34:05 10° NW
Cosmos 2322 4.3 21:23:50 10° NNW 21:29:23 48° ENE 21:30:49 40° E
COBE Rocket 4.3 21:29:38 42° E 21:29:53 43° ENE 21:34:18 10° N
Cosmos 292 Rocket 3.6 21:28:32 10° NNW 21:33:19 83° ENE 21:33:40 76° SE
Meteor 2-16 Rocket 4.4 21:35:25 43° SSW 21:37:32 79° W 21:43:39 10° N
Cosmos 2237 Rocket 4.3 21:35:27 10° N 21:39:19 18° NE 21:42:15 13° E
Cosmos 2322 Rocket 3.0 21:35:16 10° NW 21:40:28 39° WSW 21:41:46 34° SW
Cosmos 1408 Rocket 4.3 21:40:12 42° WSW 21:41:01 47° WNW 21:45:13 10° N
Cosmos 1743 Rocket 3.5 21:42:22 87° NNW 21:42:22 87° NNW 21:46:47 10° N
Cosmos 2285 Rocket 4.2 21:40:01 10° NNW 21:46:13 58° ENE 21:47:43 46° ESE
IRIDIUM 106 4.2 21:42:40 10° N 21:47:54 76° E 21:48:18 71° SE
Sich 1 3.8 21:51:50 42° ENE 21:51:50 42° ENE 21:55:10 10° NNE
Cosmos 2315 Rocket 3.9 21:44:36 10° N 21:50:58 79° E 21:52:17 58° SSE
Cosmos 2266 Rocket 4.1 21:53:30 43° SW 21:55:28 67° W 22:01:41 10° N
Cosmos 1048 Rocket 4.0 21:59:25 63° E 21:59:25 63° E 22:04:09 10° NNE
Cosmos 489 Rocket 4.5 21:59:04 57° SE 21:59:40 60° ESE 22:05:54 10° NNE
Cosmos 2219 Rocket 2.1 21:56:46 10° NNW 22:02:24 74° ENE 22:02:58 67° ESE
BREEZE-M DEB (TANK) 4.3 21:50:56 10° SW 22:06:16 68° SSE 22:10:48 10° ENE
Cosmos 2228 Rocket 3.3 22:02:07 10° NNW 22:06:05 67° NW 22:06:05 67° NW
SL-16 R/B 4.1 22:04:54 10° WNW 22:08:34 18° W 22:09:55 16° WSW
COSMOS 2455 2.8 22:09:10 54° SW 22:10:37 82° WNW 22:16:41 10° NNE
NOSS 3-1 (C) 4.0 22:04:13 10° NW 22:11:53 82° SW 22:14:30 50° SSE
Cosmos 2333 4.2 22:06:21 10° NNW 22:11:55 67° WSW 22:12:13 65° SW
COSMOS 2428 2.6 22:11:25 10° NNW 22:17:09 79° ENE 22:17:35 73° ESE
Spot 4 3.9 22:21:45 71° WNW 22:21:45 71° WNW 22:26:17 10° NNW
USA 229 DEB 3.9 22:18:40 10° NW 22:26:04 81° NE 22:28:16 51° SE
USA 229 3.9 22:18:46 10° NW 22:26:09 81° NE 22:28:23 51° SE
Terra 4.1 22:26:49 13° W 22:27:40 13° W 22:30:01 10° WNW
ATLAS 5 CENTAUR R/B 2.6 22:23:49 10° NNW 22:29:22 63° NE 22:30:39 51° E
Cosmos 1452 Rocket 3.9 22:27:56 10° NNW 22:32:49 53° W 22:32:49 53° W
ALOS 2 3.0 22:33:57 60° N 22:33:57 60° N 22:37:34 10° NNW
Cosmos 1707 Rocket 4.1 22:28:48 10° N 22:32:18 57° N 22:32:18 57° N
USA 267 3.7 22:31:07 10° NE 22:37:32 61° NNW 22:43:57 10° WSW
Cosmos 2219 4.3 22:40:38 31° E 22:40:38 31° E 22:44:51 10° NE
Nadezhda 1 Rocket 4.2 22:37:15 10° N 22:43:35 58° ENE 22:44:26 53° ESE
SL-08 ROCKET BODY 4.2 22:44:13 77° S 22:44:43 89° W 22:50:54 10° N
NOSS 3-1 (A) 4.0 22:38:55 10° NW 22:46:35 81° SW 22:48:48 54° SSE
Cosmos 2360 Rocket 4.0 22:48:13 10° WNW 22:51:50 18° W 22:51:53 18° W
Cosmos 1110 Rocket 4.3 22:53:53 10° NNW 22:58:40 59° WNW 22:58:40 59° WNW
Cosmos 1980 3.7 22:55:21 10° NNW 23:01:01 69° ENE 23:01:19 68° E
Cosmos 2333 Rocket 3.4 22:58:14 10° NW 23:02:38 30° W 23:02:38 30° W
Cosmos 1331 Rocket 4.3 22:59:24 10° NNW 23:03:58 57° WNW 23:03:58 57° WNW
Meteor 2-17 Rocket 4.4 23:05:18 65° ESE 23:05:34 66° E 23:11:34 10° NNE
USA 234 3.1 23:10:02 68° S 23:10:42 74° SW 23:17:17 10° NW
Cosmos 1340 Rocket 4.3 23:13:35 32° NNE 23:13:35 32° NNE 23:15:53 10° NNE
Nimbus 7 Rocket 4.4 23:07:25 10° NNE 23:13:26 74° WNW 23:14:02 68° WSW
NOSS 0 Rocket 3.9 23:09:46 10° NNW 23:15:57 67° WSW 23:16:01 67° WSW
Cosmos 2297 Rocket 2.1 23:17:11 77° E 23:17:11 77° E 23:22:41 10° NNE
Okean 1-7 4.0 23:15:42 10° N 23:18:54 42° NE 23:18:54 42° NE
Lacrosse 5 2.3 23:21:59 57° ENE 23:21:59 57° ENE 23:26:02 10° NE
Cosmos 2237 Rocket 2.1 23:18:25 10° NNW 23:24:02 84° W 23:24:02 84° W
Cosmos 2242 Rocket 4.3 23:21:37 10° N 23:25:08 51° NNE 23:25:08 51° NNE
NOSS 2-2 (E) 4.5 23:21:26 10° NW 23:27:03 84° NE 23:28:32 58° SE
Cosmos 1470 Rocket 4.5 23:29:03 43° NW 23:29:03 43° NW 23:32:19 10° N
Cosmos 2227 Rocket 2.2 23:28:53 72° E 23:28:53 72° E 23:34:21 10° NNE
Cosmos 909 Rocket 4.1 23:31:44 66° SSE 23:32:26 71° ESE 23:39:54 10° NE
Cosmos 1933 Rocket 4.2 23:35:34 54° NNW 23:35:34 54° NNW 23:39:08 10° N
Timation 1 Rocket 4.2 23:41:04 72° SE 23:41:13 72° ESE 23:47:12 10° NNE
Meteor 1-11 Rocket 3.6 23:41:19 73° E 23:41:21 73° E 23:46:52 10° NNE
Cosmos 2219 Rocket 4.2 23:42:22 10° WNW 23:44:40 15° W 23:44:40 15° W
Cosmos 2263 Rocket 4.0 23:46:36 19° ESE 23:47:00 19° E 23:50:49 10° ENE
NOSS 2-2 (C) 4.4 23:45:42 10° NW 23:51:16 83° SW 23:52:23 64° SSE
SL-16 R/B 2.6 23:45:53 10° NNW 23:51:30 58° ENE 23:52:43 48° ESE
Cosmos 1992 Rocket 4.0 23:46:48 10° NNW 23:52:03 75° ENE 23:52:05 75° ENE
PSLV R/B 4.3 23:47:53 10° N 23:52:12 52° NW 23:52:12 52° NW
Resurs 1-4 Rocket 3.4 23:50:12 10° NE 23:54:44 28° E 23:55:13 28° ESE
